Home > Weather > Pécs > Past weeks

Flag for Hungary Weather for the Past 2 Weeks in Pécs, Hungary

Now
34 °F

Fog.


Feels Like: 34 °F
Forecast: 37 / 46 °F
Wind: 2 mph from West

Location: Pecs / Pogany

Current Time: Feb 11, 2016 at 6:07:30 AM

Latest Report: Feb 11, 2016 at 5:00 AM


Visibility: 2 mi

Pressure: 29.74 "Hg

Humidity: 97%

Dew point: 33 °F

Location of PécsLocation

Historic Weather in Pécs — Graph

°F

Pécs Temperature Yesterday

Maximum temperature yesterday: 50 °F (at 9:00 AM)
Minimum temperature yesterday: 35 °F (at 11:00 PM)
Average temperature yesterday: 43 °F

High & Low Weather Summary for the Past Weeks

 TemperatureHumidityPressure
High60 °F (Feb 9, 12:00 PM)98% (Jan 27, 5:00 AM)30.50 "Hg (Jan 27, 5:00 AM)
Low30 °F (Jan 27, 8:00 AM)44% (Feb 6, 2:00 PM)29.21 "Hg (Feb 10, 9:00 AM)
Average44 °F77%30.12 "Hg
* Reported Jan 27 4:00 AM — Feb 11 4:00 AM, Pécs, Weather by CustomWeather, © 2016

Note: Actual official high and low records may vary slightly from our data, if they occured in-between our weather recording intervals... More about our weather records

Advertising

Pécs Weather History for the Previous 24 Hours

 ConditionsComfort  
Time TempWeatherWind HumidityBarometerVisibility
4:00 AM
Thu, Feb 11
33 °FPassing clouds.2 mph97%29.72 "Hg4 mi
2:00 AM33 °FPassing clouds.3 mph97%29.69 "Hg31 mi
1:00 AM33 °FPassing clouds.2 mph95%29.67 "Hg31 mi
11:00 PM
Wed, Feb 10
35 °FPassing clouds.2 mph92%29.63 "Hg31 mi
10:00 PM38 °FOvercast.3 mph82%29.60 "Hg43 mi
9:00 PM37 °FOvercast.1 mph91%29.57 "Hg43 mi
8:00 PM38 °FOvercast.5 mph86%29.54 "Hg43 mi
7:00 PM40 °FOvercast.6 mph79%29.50 "Hg43 mi
6:00 PM41 °FOvercast.7 mph76%29.47 "Hg43 mi
5:00 PM41 °FOvercast.6 mph76%29.41 "Hg43 mi
4:00 PM41 °FOvercast.5 mph80%29.41 "Hg37 mi
3:00 PM41 °FOvercast.7 mph83%29.41 "Hg37 mi
2:00 PM39 °FOvercast.8 mph88%29.38 "Hg25 mi
1:00 PM36 °FLow clouds.8 mph92%29.35 "Hg12 mi
12:00 PM38 °FLight rain. Low clouds.9 mph92%29.29 "Hg9 mi
11:00 AM46 °FRain. Low clouds.7 mph90%29.23 "Hg5 mi
10:00 AM48 °FLight rain. Overcast.7 mph85%29.21 "Hg9 mi
9:00 AM50 °FLight rain. Overcast.8 mph73%29.21 "Hg25 mi
8:00 AM48 °FLight rain. Overcast.7 mph73%29.23 "Hg25 mi
7:00 AM46 °FLight rain. Overcast.3 mph84%29.26 "Hg16 mi
Weather by CustomWeather, © 2016

See weather overviewHow to use our weather pages